STARLINK-36754, 67725

Orbit data source: Space-Track

STARLINK-36754, 67725 is a payload satellite owned by SpaceX/Seattle (US) in SSO that was launched on Wed, 11 Feb 2026 UTC via an FALCON 9 launch vehicle from the Air Force Western Test Range (AFWTR). Payload-class satellites include a variety of spacecraft equipped with specific instruments for various scientific and technological missions. These include communications satellites like Starlink; space stations such as the ISS; scientific satellites like the Hubble; Earth observation satellites from companies like Planet Labs, Umbra, and HawkEye 360; GPS; miniature CubeSats for education and research; and military/defense satellites.

Loading next visibility...
Identifier
67725, 2026-026E
Orbit
SSO
Country
Flag of USUS
Related business
Manufacturer
SpaceX/Seattle
Mission
Operational Commercial Communications
Bus & Motor
STARLINK V2MO, Unknown motor
Mass
575 kg wet, ~530 kg dry
Launch date (UTC)
2026-02-11 (3 months ago)
Launch vehicle
FALCON 9
Launch site
Air Force Western Test Range (AFWTR)
Object type
Payload
Rocket body
Debris
Shape & HBR
Box + 2 Pan, 17.7 m
Radar Cross Section
36.964 m²

Expand to show TLE details & history
Last TLE update: 8 hours ago

TLE from 8 hours ago
0 STARLINK-36754
1 67725U 26026E   26130.15870119  .00005920  00000-0  18559-3 0  9994
2 67725  97.2845 183.8529 0000854  93.8029 266.3312 15.33438830 13542
Epoch: 2026-05-10T03:48Z
TLE epoch observation values (Epoch: 2026-05-10T03:48:31.782Z)
Latitude
0.00002°
Longitude
-101.24532°
Altitude
468.711 km
Speed
7.632 km/s
True Right ascension
12h 15m 24s
True Declination
0° 00' 00"
Sunlit
Object was in full shadow at epoch
Visualization orbit readout
Latitude
Unknown
Longitude
Unknown
Altitude
Unknown
Speed
Unknown
Apparent Right ascension
Unknown
Apparent Declination
Unknown
Sunlit
N/A
Visualization observer readout
Local Sidereal Time
19:48:56
Azimuth
Unknown
Elevation
Unknown
Doppler factor
Unknown
Orbital elements
Apogee altitude
463.088 km
Perigee altitude
461.92 km
Semi-major axis
6,840.641 km
Eccentricity
0.00009
Inclination
97.2845°
RAAN
183.8529°
Arg. of periapsis
93.8029°
True anomaly
266.32143°
Mean anomaly
266.3312°
Eccentric anomaly
266.32632°
Mean motion
3.83617 °/min
Orbital period
93.84 mins
BSTAR
0.00018559
Loading maneuver chart data...
Computing Atmospheric mass density...
Loading historical data...
Loading historical data...
Loading historical data...
Loading historical data...
Loading historical data...
Loading historical data...
Loading historical data...

Documentation

Showing up to 5 results
|